FW8637 Weather Reports


Display with metric or nautical units.
time (UTC)temp
F
wind
direction
speed
MPH
gust
MPH
rain 1hr
in
rain 24hr
in
rain mn
in
humidity
%
barometer
mb
20260505124228 55 291 0.0 0.0 0.00 0.00 0.00 89 1016.0
20260505123723 55 291 0.0 0.0 0.00 0.00 0.00 90 1015.9
20260505123220 54 291 0.0 0.0 0.00 0.00 0.00 90 1015.8
20260505122717 54 291 0.0 0.0 0.00 0.00 0.00 90 1016.0
20260505122214 54 291 0.0 0.0 0.00 0.00 0.00 91 1015.9
20260505121710 53 291 0.0 0.0 0.00 0.00 0.00 91 1015.8
20260505121207 53 291 0.0 0.0 0.00 0.00 0.00 92 1015.8
20260505120703 53 291 0.0 0.0 0.00 0.00 0.00 92 1015.8
20260505120159 52 291 0.0 0.0 0.00 0.00 0.00 93 1015.7
20260505115653 52 291 0.0 0.0 0.00 0.00 0.00 93 1015.7
20260505115151 51 291 0.0 0.0 0.00 0.00 0.00 93 1015.6
20260505114648 51 291 0.0 0.0 0.00 0.00 0.00 93 1015.7
20260505114144 51 291 0.0 0.0 0.00 0.00 0.00 93 1015.3
20260505113641 51 291 0.0 0.0 0.00 0.00 0.00 94 1015.5
20260505113137 51 291 0.0 0.0 0.00 0.00 0.00 94 1015.4
20260505112633 50 291 0.0 0.0 0.00 0.00 0.00 94 1015.4
20260505112132 50 291 0.0 0.0 0.00 0.00 0.00 93 1015.2
20260505111631 50 291 0.0 0.0 0.00 0.00 0.00 93 1015.0
20260505111127 50 291 0.0 0.0 0.00 0.00 0.00 93 1014.9
20260505110623 50 291 0.0 0.0 0.00 0.00 0.00 93 1014.9
20260505110120 50 290 0.0 0.0 0.00 0.00 0.00 93 1014.9
20260505102051 51 290 0.0 0.0 0.00 0.00 0.00 91 1014.7
20260505101549 51 290 0.0 0.0 0.00 0.00 0.00 90 1014.8
20260505101045 51 291 0.0 0.0 0.00 0.00 0.00 90 1014.8
20260505100542 52 291 0.0 0.0 0.00 0.00 0.00 89 1014.6
20260505100039 52 291 0.0 0.0 0.00 0.00 0.00 89 1014.7
20260505095535 52 291 0.0 0.0 0.00 0.00 0.00 88 1014.6
20260505095032 53 291 0.0 0.0 0.00 0.00 0.00 88 1014.9
20260505094528 53 291 0.0 0.0 0.00 0.00 0.00 87 1014.7
20260505094024 54 291 0.0 0.0 0.00 0.00 0.00 84 1014.8
20260505093521 54 291 0.0 0.0 0.00 0.00 0.00 85 1014.7
20260505093018 53 291 0.0 0.0 0.00 0.00 0.00 86 1014.6
20260505092516 53 291 0.0 0.0 0.00 0.00 0.00 89 1014.7
20260505092014 53 291 0.0 0.0 0.00 0.00 0.00 88 1014.8
20260505091510 53 291 0.0 0.0 0.00 0.00 0.00 87 1014.7
20260505091009 53 291 0.0 0.0 0.00 0.00 0.00 87 1014.6
20260505090506 53 291 0.0 0.0 0.00 0.00 0.00 86 1014.6
20260505090004 53 291 0.0 0.0 0.00 0.00 0.00 86 1014.6
20260505085502 53 291 0.0 0.0 0.00 0.00 0.00 86 1014.5
20260505085000 54 291 0.0 0.0 0.00 0.00 0.00 86 1014.4
20260505084458 54 291 0.0 0.0 0.00 0.00 0.00 86 1014.4
20260505083955 54 291 0.0 0.0 0.00 0.00 0.00 86 1014.3
20260505083452 54 291 0.0 0.0 0.00 0.00 0.00 86 1014.5
20260505082949 54 291 0.0 0.0 0.00 0.00 0.00 87 1014.3
20260505082444 54 291 0.0 0.0 0.00 0.00 0.00 86 1014.5
20260505081941 54 291 0.0 0.0 0.00 0.00 0.00 86 1014.6
20260505081438 54 291 0.0 0.0 0.00 0.00 0.00 86 1014.7
20260505080934 54 291 0.0 0.0 0.00 0.00 0.00 85 1014.4
20260505080431 54 291 0.0 0.0 0.00 0.00 0.00 86 1014.4
20260505075926 54 291 0.0 0.0 0.00 0.00 0.00 86 1014.3
20260505075424 54 291 0.0 0.0 0.00 0.00 0.00 86 1014.3
20260505074921 54 291 0.0 0.0 0.00 0.00 0.00 86 1014.3
20260505074418 54 291 0.0 0.0 0.00 0.00 0.00 86 1014.4
20260505073915 54 291 0.0 0.0 0.00 0.00 0.00 86 1014.2
20260505073413 54 291 0.0 0.0 0.00 0.00 0.00 85 1014.2
20260505072910 54 291 0.0 0.0 0.00 0.00 0.00 84 1014.4
20260505072406 54 291 0.0 0.0 0.00 0.00 0.00 84 1014.2
20260505071902 55 291 0.0 0.0 0.00 0.00 0.00 83 1014.5
20260505071358 55 291 0.0 0.0 0.00 0.00 0.00 83 1014.4
20260505070857 55 291 0.0 0.0 0.00 0.00 0.00 83 1014.4
20260505070353 55 291 0.0 0.0 0.00 0.00 0.00 82 1014.6
20260505065848 56 291 0.0 0.0 0.00 0.00 0.00 81 1014.4
20260505065345 56 291 0.0 0.0 0.00 0.00 0.00 80 1014.3
20260505064842 56 291 0.0 0.0 0.00 0.00 0.00 81 1014.4
20260505064339 57 291 0.0 0.0 0.00 0.00 0.00 80 1014.5
20260505063837 57 291 0.0 0.0 0.00 0.00 0.00 79 1014.6
20260505063333 58 291 0.0 0.0 0.00 0.00 0.00 79 1014.6
20260505062830 58 291 0.0 0.0 0.00 0.00 0.00 77 1014.4
20260505062327 58 291 0.0 0.0 0.00 0.00 0.00 75 1014.5
20260505061824 58 291 0.0 0.0 0.00 0.00 0.00 75 1014.5
20260505061322 58 291 0.0 0.0 0.00 0.00 0.00 76 1014.4
20260505060819 59 291 0.0 0.0 0.00 0.00 0.00 75 1014.6
20260505060316 59 291 0.0 0.0 0.00 0.00 0.00 74 1014.5
20260505055812 59 291 0.0 0.0 0.00 0.00 0.00 74 1014.4
20260505055308 59 291 0.0 0.0 0.00 0.00 0.00 74 1014.6
20260505054806 59 291 0.0 0.0 0.00 0.00 0.00 74 1014.5
20260505054303 59 291 0.0 0.0 0.00 0.00 0.00 74 1014.7
20260505053801 59 291 0.0 0.0 0.00 0.00 0.00 74 1014.3
20260505053258 59 291 0.0 0.0 0.00 0.00 0.00 74 1014.5
20260505052754 59 291 0.0 0.0 0.00 0.00 0.00 73 1014.4
20260505052251 59 291 0.0 0.0 0.00 0.00 0.00 74 1014.3
20260505051748 59 291 0.0 0.0 0.00 0.00 0.00 74 1014.4
20260505051246 59 291 0.0 0.0 0.00 0.00 0.00 73 1014.3
20260505050744 59 291 0.0 0.0 0.00 0.00 0.00 75 1014.3
20260505050242 59 291 0.0 0.0 0.00 0.00 0.00 75 1014.2
20260505041712 59 291 0.0 0.0 0.00 0.00 0.00 72 1014.0
20260505041209 60 291 0.0 0.0 0.00 0.00 0.00 72 1014.2
20260505040706 60 291 0.0 0.0 0.00 0.00 0.00 71 1014.2
20260505040204 60 291 0.0 0.0 0.00 0.00 0.00 71 1013.9
20260505035700 60 291 0.0 0.0 0.00 0.00 0.00 70 1014.1
20260505035156 60 291 0.0 0.0 0.00 0.00 0.00 70 1014.3
20260505034653 61 291 0.0 0.0 0.00 0.00 0.00 70 1014.1
20260505034150 61 291 0.0 0.0 0.00 0.00 0.00 69 1014.2
20260505033646 61 291 0.0 0.0 0.00 0.00 0.00 69 1014.1
20260505033145 61 291 0.0 0.0 0.00 0.00 0.00 68 1014.0
20260505032643 62 291 0.0 0.0 0.00 0.00 0.00 67 1014.0
20260505032138 62 291 0.0 0.0 0.00 0.00 0.00 67 1014.1
20260505031636 62 291 0.0 0.0 0.00 0.00 0.00 67 1014.0
20260505031132 63 291 0.0 0.0 0.00 0.00 0.00 66 1014.0
20260505030629 63 291 0.0 0.0 0.00 0.00 0.00 66 1014.0
20260505030125 63 291 0.0 0.0 0.00 0.00 0.00 67 1013.9
20260505025621 64 291 0.0 0.0 0.00 0.00 0.00 68 1014.0
20260505025120 64 291 0.0 0.0 0.00 0.00 0.00 67 1014.2
20260505024617 64 291 0.0 0.0 0.00 0.00 0.00 67 1014.0
20260505024114 64 291 0.0 0.0 0.00 0.00 0.00 68 1014.1
20260505023611 64 291 0.0 0.0 0.00 0.00 0.00 67 1014.1
20260505023109 64 291 0.0 0.0 0.00 0.00 0.00 66 1014.1
20260505022606 64 291 0.0 0.0 0.00 0.00 0.00 67 1014.3
20260505022103 64 291 0.0 0.0 0.00 0.00 0.00 70 1014.1
20260505021559 64 291 0.0 0.0 0.00 0.00 0.00 68 1014.1
20260505021056 64 291 0.0 0.0 0.00 0.00 0.00 67 1014.3
20260505020556 64 291 0.0 0.0 0.00 0.00 0.00 72 1014.1
20260505020053 64 291 0.0 0.0 0.00 0.00 0.00 71 1014.2
20260505015550 64 291 0.0 0.0 0.00 0.00 0.00 69 1014.3
20260505015047 64 291 0.0 0.0 0.00 0.00 0.00 68 1014.2
20260505014544 64 291 0.0 0.0 0.00 0.00 0.00 70 1014.1
20260505014041 64 291 0.0 0.0 0.00 0.00 0.00 70 1014.1
20260505013538 65 291 0.0 0.0 0.00 0.00 0.00 70 1014.1
20260505013036 65 291 0.0 0.0 0.00 0.00 0.00 72 1014.0
20260505012534 65 291 0.0 0.0 0.00 0.00 0.00 70 1013.9
20260505012030 65 291 0.0 0.0 0.00 0.00 0.00 71 1014.0
20260505011526 66 291 0.0 0.0 0.00 0.00 0.00 70 1013.9
20260505011023 66 291 0.0 0.0 0.00 0.00 0.00 69 1013.8
20260505010518 66 291 0.0 0.0 0.00 0.00 0.00 69 1013.8
20260505010015 66 291 0.0 0.0 0.00 0.00 0.00 70 1013.7
20260505005512 67 291 0.0 0.0 0.00 0.00 0.00 68 1013.9
20260505005009 67 291 0.0 0.0 0.00 0.00 0.00 67 1013.7
20260505004506 67 291 0.0 0.0 0.00 0.00 0.00 67 1013.5
20260505004003 68 291 0.0 0.0 0.00 0.00 0.00 68 1013.6
20260505003500 68 291 0.0 0.0 0.00 0.00 0.00 67 1013.7
20260505002956 68 291 0.0 0.0 0.00 0.00 0.00 66 1013.6
20260505002452 69 291 0.0 0.0 0.00 0.00 0.00 66 1013.5
20260505001951 69 291 0.0 0.0 0.00 0.00 0.00 64 1013.6
20260505001448 70 291 0.0 0.0 0.00 0.00 0.00 63 1013.3
20260505000945 70 291 0.0 0.0 0.00 0.00 0.00 63 1013.2
20260505000443 71 291 0.0 0.0 0.00 0.00 0.00 64 1013.3
20260504235940 71 291 0.0 0.0 0.00 0.00 0.00 63 1013.2
20260504235437 72 291 0.0 0.0 0.00 0.00 0.00 62 1013.3
20260504234933 73 291 0.0 0.0 0.00 0.00 0.00 62 1013.3
20260504234431 73 291 0.0 0.0 0.00 0.00 0.00 61 1013.3
20260504233927 73 291 0.0 0.0 0.00 0.00 0.00 56 1013.4
20260504233423 73 291 0.0 0.0 0.00 0.00 0.00 54 1013.5
20260504232920 73 291 0.0 0.0 0.00 0.00 0.00 55 1013.5
20260504232417 73 291 0.0 0.0 0.00 0.00 0.00 60 1013.4
20260504231914 73 291 0.0 0.0 0.00 0.00 0.00 58 1013.5
20260504231410 74 291 0.0 0.0 0.00 0.00 0.00 53 1013.5
20260504230907 74 291 0.0 0.0 0.00 0.00 0.00 52 1013.3
20260504230404 74 291 0.0 0.0 0.00 0.00 0.00 59 1013.1
20260504225903 75 291 0.0 0.0 0.00 0.00 0.00 57 1013.2
20260504225359 75 291 0.0 0.0 0.00 0.00 0.00 52 1013.1
20260504224856 75 291 0.0 0.0 0.00 0.00 0.00 53 1013.4
20260504224353 75 291 0.0 0.0 0.00 0.00 0.00 56 1013.2
20260504223850 75 291 0.0 0.0 0.00 0.00 0.00 52 1013.4
20260504223345 75 291 0.0 0.0 0.00 0.00 0.00 50 1013.4
20260504222842 76 291 0.0 0.0 0.00 0.00 0.00 51 1013.2
20260504222338 76 290 0.0 0.0 0.00 0.00 0.00 50 1013.2
20260504221837 77 290 0.0 0.0 0.00 0.00 0.00 48 1013.3
20260504221333 77 291 0.0 0.0 0.00 0.00 0.00 49 1013.2
20260504220831 77 291 0.0 0.0 0.00 0.00 0.00 46 1013.0
20260504220327 77 291 0.0 0.0 0.00 0.00 0.00 45 1013.1
20260504215825 77 290 0.0 1.0 0.00 0.00 0.00 45 1013.1
20260504215321 76 291 0.0 0.0 0.00 0.00 0.00 45 1012.9
20260504214817 76 290 0.0 0.0 0.00 0.00 0.00 46 1013.2
20260504214314 76 290 0.0 0.0 0.00 0.00 0.00 48 1013.1
20260504213810 77 290 0.0 0.0 0.00 0.00 0.00 48 1013.1
20260504213306 77 290 0.0 0.0 0.00 0.00 0.00 47 1013.4
20260504212804 77 290 0.0 0.0 0.00 0.00 0.00 48 1013.2
20260504212300 77 290 0.0 0.0 0.00 0.00 0.00 50 1013.2
20260504211758 77 290 0.0 0.0 0.00 0.00 0.00 47 1013.1
20260504211254 77 290 0.0 0.0 0.00 0.00 0.00 46 1013.3
20260504210751 77 291 0.0 0.0 0.00 0.00 0.00 50 1013.4
20260504210248 77 290 0.0 0.0 0.00 0.00 0.00 47 1013.4
20260504205745 77 291 0.0 0.0 0.00 0.00 0.00 50 1013.4
20260504205243 76 291 0.0 0.0 0.00 0.00 0.00 49 1013.5
20260504204741 77 291 0.0 0.0 0.00 0.00 0.00 50 1013.5
20260504204239 77 291 0.0 0.0 0.00 0.00 0.00 51 1013.6
20260504203738 77 291 0.0 0.0 0.00 0.00 0.00 53 1013.5
20260504203235 77 291 0.0 0.0 0.00 0.00 0.00 48 1013.6
20260504202735 77 291 0.0 0.0 0.00 0.00 0.00 49 1013.7
20260504202233 77 291 0.0 0.0 0.00 0.00 0.00 49 1013.7
20260504201730 77 291 0.0 0.0 0.00 0.00 0.00 49 1013.7
20260504201227 77 290 0.0 0.0 0.00 0.00 0.00 51 1013.8
20260504200725 77 291 0.0 0.0 0.00 0.00 0.00 52 1013.8
20260504200220 77 291 0.0 0.0 0.00 0.00 0.00 49 1013.7
20260504195717 77 290 0.0 0.0 0.00 0.00 0.00 49 1014.0
20260504195213 77 290 0.0 0.0 0.00 0.00 0.00 52 1014.0
20260504194710 77 290 0.0 1.0 0.00 0.00 0.00 50 1014.2
20260504194206 77 290 0.0 0.0 0.00 0.00 0.00 50 1014.5
20260504193702 77 290 0.0 0.0 0.00 0.00 0.00 51 1014.4
20260504193200 77 290 0.0 0.0 0.00 0.00 0.00 50 1014.4
20260504192658 77 291 0.0 0.0 0.00 0.00 0.00 50 1014.4
20260504192156 77 291 0.0 0.0 0.00 0.00 0.00 51 1014.5
20260504191654 77 291 0.0 0.0 0.00 0.00 0.00 54 1014.6
20260504191150 76 291 0.0 0.0 0.00 0.00 0.00 51 1014.8
20260504190646 76 291 0.0 0.0 0.00 0.00 0.00 52 1014.8
20260504190143 76 291 0.0 0.0 0.00 0.00 0.00 52 1014.8
20260504185639 76 291 0.0 0.0 0.00 0.00 0.00 49 1015.0
20260504185136 76 290 0.0 1.0 0.00 0.00 0.00 50 1014.9
20260504184632 76 290 0.0 0.0 0.00 0.00 0.00 49 1015.2
20260504184127 77 290 0.0 0.0 0.00 0.00 0.00 49 1014.9
20260504183625 78 290 0.0 0.0 0.00 0.00 0.00 48 1014.9
20260504183122 77 290 0.0 0.0 0.00 0.00 0.00 49 1015.1
20260504182620 78 290 0.0 0.0 0.00 0.00 0.00 49 1015.1
20260504182117 78 291 0.0 0.0 0.00 0.00 0.00 49 1015.1
20260504181614 77 291 0.0 0.0 0.00 0.00 0.00 51 1015.4
20260504181112 76 291 0.0 0.0 0.00 0.00 0.00 51 1015.4
20260504180611 76 290 0.0 0.0 0.00 0.00 0.00 49 1015.4
20260504180109 75 291 0.0 0.0 0.00 0.00 0.00 50 1015.6
20260504175606 75 290 0.0 0.0 0.00 0.00 0.00 50 1015.7
20260504175103 75 290 0.0 0.0 0.00 0.00 0.00 51 1015.4
20260504174601 75 290 0.0 0.0 0.00 0.00 0.00 51 1015.6
20260504174057 75 290 0.0 0.0 0.00 0.00 0.00 50 1015.5
20260504173554 74 291 0.0 0.0 0.00 0.00 0.00 53 1015.5
20260504173052 75 291 0.0 0.0 0.00 0.00 0.00 55 1015.9
20260504172547 75 291 0.0 0.0 0.00 0.00 0.00 50 1015.9
20260504172044 74 291 0.0 0.0 0.00 0.00 0.00 54 1015.9
20260504171541 74 290 0.0 0.0 0.00 0.00 0.00 50 1016.3
20260504171038 74 290 0.0 0.0 0.00 0.00 0.00 50 1016.3
20260504170534 74 290 0.0 0.0 0.00 0.00 0.00 50 1016.3
20260504150918 66 290 0.0 0.0 0.00 0.00 0.00 64 1017.9
20260504150415 65 291 0.0 0.0 0.00 0.00 0.00 65 1018.1
20260504140841 56 292 0.0 0.0 0.00 0.00 0.00 81 1018.6
20260504140337 56 292 0.0 0.0 0.00 0.00 0.00 81 1018.7
20260504130806 51 292 0.0 0.0 0.00 0.00 0.00 86 1018.9
20260504130302 51 292 0.0 0.0 0.00 0.00 0.00 88 1018.6